TimeEST,TemperatureF,Dew PointF,Humidity,Sea Level PressureIn,VisibilityMPH,Wind Direction,Wind SpeedMPH,Gust SpeedMPH,PrecipitationIn,Events,Conditions,WindDirDegrees,DateUTC
12:15 AM,21.2,12.2,68,30.02,10.0,SW,4.6,-,N/A,,Scattered Clouds,220,2013-02-03 05:15:00
12:36 AM,21.2,12.2,68,30.02,10.0,SW,3.5,-,N/A,,Partly Cloudy,230,2013-02-03 05:36:00
12:55 AM,21.2,12.2,68,30.01,10.0,Calm,Calm,-,N/A,,Clear,0,2013-02-03 05:55:00
1:15 AM,21.2,12.2,68,30.01,10.0,Calm,Calm,-,N/A,,Partly Cloudy,0,2013-02-03 06:15:00
1:35 AM,21.2,14.0,74,30.01,10.0,North,3.5,-,N/A,,Mostly Cloudy,350,2013-02-03 06:35:00
1:55 AM,21.2,12.2,68,30.01,10.0,Calm,Calm,-,N/A,,Scattered Clouds,0,2013-02-03 06:55:00
2:15 AM,21.2,12.2,68,30.00,10.0,Calm,Calm,-,N/A,,Scattered Clouds,0,2013-02-03 07:15:00
2:35 AM,19.4,12.2,74,29.99,10.0,Calm,Calm,-,N/A,,Scattered Clouds,0,2013-02-03 07:35:00
2:55 AM,19.4,12.2,74,29.99,10.0,Calm,Calm,-,N/A,,Partly Cloudy,0,2013-02-03 07:55:00
3:15 AM,19.4,12.2,74,29.98,10.0,Calm,Calm,-,N/A,,Mostly Cloudy,0,2013-02-03 08:15:00
3:35 AM,17.6,12.2,79,29.98,10.0,East,3.5,-,N/A,,Mostly Cloudy,100,2013-02-03 08:35:00
3:55 AM,17.6,12.2,79,29.97,10.0,Calm,Calm,-,N/A,,Partly Cloudy,0,2013-02-03 08:55:00
4:15 AM,17.6,12.2,79,29.97,10.0,Calm,Calm,-,N/A,,Mostly Cloudy,0,2013-02-03 09:15:00
4:35 AM,17.6,12.2,79,29.96,10.0,Calm,Calm,-,N/A,,Overcast,0,2013-02-03 09:35:00
4:55 AM,17.6,12.2,79,29.96,10.0,Calm,Calm,-,N/A,,Overcast,0,2013-02-03 09:55:00
5:15 AM,17.6,12.2,79,29.96,10.0,Calm,Calm,-,N/A,,Overcast,0,2013-02-03 10:15:00
5:35 AM,17.6,12.2,79,29.96,10.0,Calm,Calm,-,N/A,,Scattered Clouds,0,2013-02-03 10:35:00
5:55 AM,15.8,10.4,79,29.95,10.0,Calm,Calm,-,N/A,,Partly Cloudy,0,2013-02-03 10:55:00
6:15 AM,15.8,10.4,79,29.95,10.0,Calm,Calm,-,N/A,,Mostly Cloudy,0,2013-02-03 11:15:00
6:35 AM,15.8,10.4,79,29.95,10.0,Calm,Calm,-,N/A,,Scattered Clouds,0,2013-02-03 11:35:00
6:55 AM,14.0,10.4,86,29.95,10.0,Calm,Calm,-,N/A,,Partly Cloudy,0,2013-02-03 11:55:00
7:15 AM,14.0,10.4,86,29.95,10.0,Calm,Calm,-,N/A,,Clear,0,2013-02-03 12:15:00
7:35 AM,12.2,8.6,85,29.95,10.0,Calm,Calm,-,N/A,,Clear,0,2013-02-03 12:35:00
7:55 AM,14.0,10.4,86,29.95,10.0,Calm,Calm,-,N/A,,Clear,0,2013-02-03 12:55:00
8:15 AM,15.8,10.4,79,29.96,10.0,Calm,Calm,-,N/A,,Clear,0,2013-02-03 13:15:00
8:35 AM,15.8,10.4,79,29.96,10.0,Calm,Calm,-,N/A,,Clear,0,2013-02-03 13:35:00
8:55 AM,17.6,12.2,79,29.96,10.0,Calm,Calm,-,N/A,,Partly Cloudy,0,2013-02-03 13:55:00
9:15 AM,19.4,12.2,74,29.96,10.0,Calm,Calm,-,N/A,,Mostly Cloudy,0,2013-02-03 14:15:00
9:35 AM,19.4,12.2,74,29.95,10.0,Calm,Calm,-,N/A,,Partly Cloudy,0,2013-02-03 14:35:00
9:56 AM,21.2,12.2,68,29.94,10.0,North,3.5,-,N/A,,Clear,10,2013-02-03 14:56:00
10:15 AM,21.2,10.4,63,29.93,10.0,North,3.5,-,N/A,,Clear,360,2013-02-03 15:15:00
10:35 AM,23.0,10.4,59,29.92,10.0,North,5.8,-,N/A,,Clear,350,2013-02-03 15:35:00
10:55 AM,24.8,10.4,54,29.91,10.0,ENE,5.8,-,N/A,,Clear,70,2013-02-03 15:55:00
11:35 AM,26.6,8.6,47,29.88,10.0,SSW,4.6,-,N/A,,Mostly Cloudy,200,2013-02-03 16:35:00
11:55 AM,26.6,8.6,47,29.86,10.0,ENE,3.5,-,N/A,,Mostly Cloudy,70,2013-02-03 16:55:00
12:15 PM,26.6,8.6,47,29.85,10.0,North,5.8,-,N/A,,Mostly Cloudy,350,2013-02-03 17:15:00
12:35 PM,26.6,10.4,51,29.83,10.0,West,4.6,-,N/A,,Overcast,280,2013-02-03 17:35:00
12:55 PM,26.6,10.4,51,29.82,10.0,North,5.8,-,N/A,,Overcast,360,2013-02-03 17:55:00
1:15 PM,26.6,8.6,47,29.81,10.0,North,3.5,-,N/A,,Overcast,350,2013-02-03 18:15:00
1:35 PM,26.6,10.4,51,29.80,10.0,NNW,3.5,-,N/A,,Overcast,340,2013-02-03 18:35:00
1:55 PM,28.4,8.6,43,29.79,10.0,Calm,Calm,-,N/A,,Overcast,0,2013-02-03 18:55:00
2:15 PM,28.4,10.4,47,29.79,10.0,Calm,Calm,-,N/A,,Overcast,0,2013-02-03 19:15:00
2:35 PM,28.4,10.4,47,29.78,10.0,SW,4.6,-,N/A,,Overcast,230,2013-02-03 19:35:00
2:55 PM,28.4,10.4,47,29.78,10.0,Calm,Calm,-,N/A,,Overcast,0,2013-02-03 19:55:00
3:15 PM,28.4,10.4,47,29.78,10.0,West,4.6,-,N/A,,Overcast,260,2013-02-03 20:15:00
3:35 PM,28.4,10.4,47,29.77,10.0,Calm,Calm,-,N/A,,Overcast,0,2013-02-03 20:35:00
3:55 PM,28.4,10.4,47,29.77,10.0,West,3.5,-,N/A,,Overcast,270,2013-02-03 20:55:00
4:15 PM,28.4,10.4,47,29.77,10.0,Calm,Calm,-,N/A,,Overcast,0,2013-02-03 21:15:00
4:35 PM,28.4,10.4,47,29.76,10.0,Calm,Calm,-,N/A,,Overcast,0,2013-02-03 21:35:00
4:55 PM,28.4,10.4,47,29.76,10.0,Calm,Calm,-,N/A,,Overcast,0,2013-02-03 21:55:00
5:15 PM,26.6,10.4,51,29.75,10.0,Calm,Calm,-,N/A,,Overcast,0,2013-02-03 22:15:00
5:35 PM,26.6,10.4,51,29.75,10.0,Calm,Calm,-,N/A,,Overcast,0,2013-02-03 22:35:00
5:55 PM,26.6,12.2,55,29.75,10.0,Calm,Calm,-,N/A,,Overcast,0,2013-02-03 22:55:00
6:15 PM,26.6,12.2,55,29.74,10.0,Calm,Calm,-,N/A,,Scattered Clouds,0,2013-02-03 23:15:00
6:35 PM,24.8,12.2,59,29.74,10.0,Calm,Calm,-,N/A,,Mostly Cloudy,0,2013-02-03 23:35:00
6:55 PM,24.8,12.2,59,29.75,10.0,Calm,Calm,-,N/A,,Overcast,0,2013-02-03 23:55:00
7:15 PM,24.8,12.2,59,29.75,10.0,Calm,Calm,-,N/A,,Overcast,0,2013-02-04 00:15:00
7:35 PM,23.0,12.2,63,29.75,10.0,Calm,Calm,-,N/A,,Overcast,0,2013-02-04 00:35:00
7:55 PM,23.0,12.2,63,29.75,10.0,Calm,Calm,-,N/A,,Overcast,0,2013-02-04 00:55:00
8:15 PM,23.0,14.0,68,29.75,10.0,Calm,Calm,-,N/A,,Mostly Cloudy,0,2013-02-04 01:15:00
8:35 PM,23.0,15.8,74,29.75,10.0,Calm,Calm,-,N/A,,Mostly Cloudy,0,2013-02-04 01:35:00
9:15 PM,24.8,14.0,64,29.75,10.0,Calm,Calm,-,N/A,,Overcast,0,2013-02-04 02:15:00
9:35 PM,24.8,12.2,59,29.75,10.0,Calm,Calm,-,N/A,,Scattered Clouds,0,2013-02-04 02:35:00
9:55 PM,24.8,14.0,64,29.74,10.0,Calm,Calm,-,N/A,,Clear,0,2013-02-04 02:55:00
10:15 PM,23.0,12.2,63,29.73,10.0,Calm,Calm,-,N/A,,Partly Cloudy,0,2013-02-04 03:15:00
10:35 PM,21.2,14.0,74,29.73,10.0,Calm,Calm,-,N/A,,Mostly Cloudy,0,2013-02-04 03:35:00
10:56 PM,21.2,12.2,68,29.72,10.0,Calm,Calm,-,N/A,,Mostly Cloudy,0,2013-02-04 03:56:00
11:15 PM,21.2,12.2,68,29.73,10.0,SSW,3.5,-,N/A,,Clear,210,2013-02-04 04:15:00
11:35 PM,21.2,14.0,74,29.73,10.0,Calm,Calm,-,N/A,,Clear,0,2013-02-04 04:35:00
11:55 PM,19.4,10.4,68,29.72,10.0,Calm,Calm,-,N/A,,Clear,0,2013-02-04 04:55:00